CZ-6A DEB, 63393

Orbit data source: Space-Track

CZ-6A DEB, 63393 is space debris in LEO originally from a launch on Tue, 06 Aug 2024 UTC launched from the Taiyaun Space Center, China (TSC). Debris objects in space refer to the collection of defunct objects orbiting the Earth. Examples of debris include non-operational satellites, rocket bodies, and fragments generated from explosions, collisions, or faulty payload assembly.

Loading next visibility...
Identifier
63393, 2024-140ADQ
Orbit
LEO
Country
Flag of CNCN / PRC
Related business
Manufacturer
SAST
Mission
Spacecraft
Bus & Motor
Unknown
Mass
Unknown
Launch date (UTC)
2024-08-06 (2 years ago)
Launch vehicle
Unknown
Launch site
Taiyaun Space Center, China (TSC)
Object type
Payload
Rocket body
Debris
Shape & HBR
Unknown shape, 0.1 m
Radar Cross Section
Medium (>0.1 m² and <1 m²)

Expand to show TLE details & history
Last TLE update: 1 day ago

TLE from 1 day ago
0 CZ-6A DEB
1 63393U 24140ADQ 26170.55442645  .00000573  00000-0  28464-3 0  9998
2 63393  89.0258 277.1317 0070744 190.9644 169.0006 14.14518698 95947
Epoch: 2026-06-19T13:18Z
TLE epoch observation values (Epoch: 2026-06-19T13:18:22.445Z)
Latitude
0.00003°
Longitude
169.75645°
Altitude
897.172 km
Speed
7.378 km/s
True Right ascension
18h 28m 31s
True Declination
0° 00' 00"
Sunlit
Object was in full shadow at epoch
Visualization orbit readout
Latitude
Unknown
Longitude
Unknown
Altitude
Unknown
Speed
Unknown
Apparent Right ascension
Unknown
Apparent Declination
Unknown
Sunlit
N/A
Visualization observer readout
Local Sidereal Time
10:18:57
Azimuth
Unknown
Elevation
Unknown
Doppler factor
Unknown
Orbital elements
Apogee altitude
891.979 km
Perigee altitude
789.838 km
Semi-major axis
7,219.046 km
Eccentricity
0.00707
Inclination
89.0258°
RAAN
277.1317°
Arg. of periapsis
190.9644°
True anomaly
169.15394°
Mean anomaly
169.0006°
Eccentric anomaly
169.0774°
Mean motion
3.53853 °/min
Orbital period
101.74 mins
BSTAR
0.00028464
Loading maneuver chart data...
Computing Atmospheric mass density...
Loading historical data...
Loading historical data...
Loading historical data...
Loading historical data...
Loading historical data...
Loading historical data...
Loading historical data...

Documentation

Showing up to 5 results
|